This demonstration page uses our WeatherBlox Daily Observations layout. Learn more.

Left ArrowRight Arrow

39.01783, -85.05884

Hourly Observations for September 4, 2021

Temp ( °F °C ) Dew Point ( °F °C ) Humidity (%) Winds ( mph kmh ) Pressure ( in mb ) Visibility ( mi km ) Precip ( " mm )
12:52 am 00:52 Cloudy 69 20.6 54 12.2 59 59 SE 7 11 30.03 1017 10 16 0.00 0.00
1:52 am 01:52 Mostly Cloudy 68 20 54 12.2 61 61 ESE 6 9 30.02 1017 10 16 0.00 0.00
2:52 am 02:52 Cloudy 68 20 54 12.2 61 61 SSE 7 11 30.02 1017 10 16 0.00 0.00
3:52 am 03:52 Cloudy 67 19.4 54 12.2 63 63 SSE 5 7 30.00 1016 10 16 0.00 0.00
4:52 am 04:52 Mostly Cloudy 67 19.4 54 12.2 63 63 ESE 6 9 29.99 1016 10 16 0.00 0.00
5:52 am 05:52 Cloudy 66 18.9 54 12.2 65 65 SE 6 9 30.01 1016 10 16 0.00 0.00
6:52 am 06:52 Cloudy 64 17.8 55 12.8 73 73 Calm 30.01 1016 10 16 0.00 0.00
7:52 am 07:52 Mostly Cloudy 64 17.8 57 13.9 78 78 S 5 7 30.02 1017 10 16 0.00 0.00
8:52 am 08:52 Mostly Cloudy 68 20 57 13.9 68 68 S 5 7 30.01 1016 10 16 0.00 0.00
9:52 am 09:52 Cloudy 70 21.1 59 15 68 68 SSW 6 9 30.00 1016 10 16 0.00 0.00
10:52 am 10:52 Cloudy with Light Rain 71 21.7 61 16.1 71 71 SSW 6 9 29.99 1016 10 16 0.00 0.00
11:52 am 11:52 Mostly Cloudy 76 24.4 61 16.1 60 60 SW 10 17 29.98 1015 10 16 0.00 0.00
12:52 pm 12:52 Mostly Cloudy 78 25.6 61 16.1 56 56 SW 8 13 29.97 1015 10 16 0.00 0.00
1:52 pm 13:52 Cloudy 78 25.6 62 16.7 58 58 SSW 10 17 29.96 1014 10 16 0.00 0.00
2:52 pm 14:52 Cloudy 79 26.1 62 16.7 56 56 SW 9 15 29.93 1014 10 16 0.00 0.00
3:52 pm 15:52 Cloudy 79 26.1 62 16.7 56 56 SSW 9 15 29.91 1013 10 16 0.00 0.00
4:52 pm 16:52 Cloudy 78 25.6 60 15.6 54 54 SW 10 17 29.91 1013 10 16 0.00 0.00
5:52 pm 17:52 Cloudy 77 25 60 15.6 56 56 VRB 7 11 29.90 1013 10 16 0.00 0.00
6:52 pm 18:52 Cloudy with Light Rain 75 23.9 63 17.2 66 66 SSW 7 11 29.89 1012 10 16 0.00 0.00
7:52 pm 19:52 Cloudy with Light Rain 71 21.7 63 17.2 76 76 S 7 11 29.88 1012 10 16 0.00 0.00
8:52 pm 20:52 Cloudy 71 21.7 61 16.1 71 71 SSW 8 13 29.87 1012 10 16 0.00 0.00
9:52 pm 21:52 Cloudy 71 21.7 61 16.1 71 71 SW 6 9 29.87 1012 10 16 0.00 0.00
10:52 pm 22:52 Cloudy 73 22.8 61 16.1 66 66 SW 6 9 29.87 1011 10 16 0.00 0.00
11:52 pm 23:52 Cloudy 71 21.7 63 17.2 76 76 W 7 11 29.87 1012 10 16 0.00 0.00

Powered by AerisWeather